Location: Central Coast NSW, Australia
(33.2407°S, 151.4316°E)
Time: 15:28:56
(UTC+10:00)

N. Korean satellite - Visible Passes

Search period start: 25 May 2018 00:00
Search period end: 04 June 2018 00:00
Orbit: 458 x 513 km, 97.2° (Epoch: 24 May)

Date Brightness Start Highest point End Pass type
(mag) Time Alt. Az. Time Alt. Az. Time Alt. Az.
25 May 9.1 05:03:56 10° NE 05:06:57 23° ESE 05:09:59 10° SSE visible
25 May 6.7 18:08:54 17° SSE 18:11:28 50° E 18:14:54 10° N visible
26 May 9.8 04:41:47 10° E 04:43:09 12° ESE 04:44:33 10° SE visible
26 May 7.3 06:12:43 10° NNW 06:16:13 37° W 06:19:47 10° SSW visible
26 May 7.8 17:44:43 12° SE 17:47:21 23° E 17:50:12 10° NNE visible
26 May 9.4 19:19:07 13° SW 19:20:36 16° WSW 19:22:51 10° WNW visible
27 May 6.6 05:48:25 10° N 05:52:11 83° WNW 05:56:01 10° SSW visible
27 May 8.6 17:22:17 10° ESE 17:23:11 11° E 17:24:03 10° ENE visible
27 May 8.3 18:54:56 20° SSW 18:56:46 32° WSW 18:59:57 10° NW visible
28 May 7.9 05:24:38 10° NNE 05:28:14 44° ESE 05:31:53 10° S visible
28 May 6.6 18:30:45 24° S 18:32:49 75° WSW 18:36:21 10° NNW visible
29 May 9.2 05:01:26 10° ENE 05:04:22 21° ESE 05:07:18 10° SSE visible
29 May 6.8 18:06:33 20° SSE 18:08:48 46° E 18:12:11 10° N visible
30 May 9.9 04:39:33 10° E 04:40:33 11° ESE 04:41:35 10° SE visible
30 May 7.2 06:10:02 10° N 06:13:35 40° W 06:17:12 10° SSW visible
30 May 7.9 17:42:20 12° SE 17:44:41 21° E 17:47:24 10° NE visible
30 May 9.3 19:16:44 15° SW 19:17:58 17° WSW 19:20:18 10° WNW visible
31 May 6.7 05:45:47 10° NNE 05:49:33 89° WNW 05:53:23 10° SSW visible
31 May 8.1 18:52:31 23° SSW 18:54:06 34° WSW 18:57:18 10° NW visible
01 Jun 8.0 05:22:02 10° NE 05:25:36 40° ESE 05:29:12 10° S visible
01 Jun 6.5 18:28:17 27° S 18:30:08 81° WSW 18:33:38 10° NNW visible
02 Jun 9.3 04:58:54 10° ENE 05:01:43 20° ESE 05:04:33 10° SSE visible
02 Jun 6.9 18:04:03 21° SE 18:06:05 42° E 18:09:24 10° N visible
03 Jun 10.0 04:37:38 10° ESE 04:37:54 10° ESE 04:38:11 10° ESE visible
03 Jun 7.1 06:07:19 10° N 06:10:55 43° W 06:14:34 10° SSW visible
03 Jun 8.0 17:39:49 12° SE 17:41:57 19° E 17:44:31 10° NE visible
03 Jun 9.2 19:14:12 16° SW 19:15:16 18° WSW 19:17:41 10° WNW visible
